Precipitable_Water
0.86 0.79 0.80 0.77 0.78 0.78 0.76 0.78 0.77 0.71 0.68 0.64 0.60 0.57 0.54 0.56 0.56 0.57 0.55 0.54 0.57 0.58
0.78 0.78 0.78 0.83 0.81 0.78 0.75 0.75 0.77 0.72 0.64 0.62 0.60 0.59 0.57 0.54 0.56 0.55 0.54 0.54 0.53 0.53
0.80 0.78 0.77 0.76 0.70 0.65 0.69 0.67 0.69 0.65 0.67 0.66 0.64 0.63 0.60 0.57 0.59 0.56 0.55 0.53 0.50 0.49
0.79 0.79 0.76 0.72 0.70 0.68 0.68 0.68 0.66 0.66 0.66 0.65 0.65 0.67 0.64 0.62 0.60 0.59 0.55 0.53 0.48 0.46
0.81 0.76 0.73 0.71 0.70 0.71 0.69 0.70 0.67 0.66 0.64 0.65 0.67 0.70 0.69 0.64 0.62 0.60 0.58 0.57 0.53 0.47
0.79 0.74 0.74 0.73 0.73 0.74 0.71 0.68 0.69 0.66 0.65 0.66 0.67 0.68 0.71 0.69 0.67 0.66 0.62 0.59 0.54 0.51
0.78 0.74 0.76 0.78 0.78 0.75 0.71 0.65 0.63 0.64 0.65 0.66 0.68 0.71 0.73 0.72 0.68 0.66 0.63 0.58 0.56 0.53
0.82 0.78 0.75 0.74 0.73 0.72 0.67 0.64 0.63 0.64 0.68 0.71 0.72 0.70 0.68 0.67 0.61 0.57 0.55 0.54 0.56 0.52
0.78 0.72 0.71 0.72 0.68 0.65 0.64 0.66 0.65 0.66 0.68 0.65 0.61 0.58 0.56 0.56 0.55 0.55 0.51 0.49 0.50 0.49
0.68 0.66 0.67 0.67 0.66 0.66 0.65 0.63 0.61 0.60 0.57 0.52 0.49 0.50 0.50 0.53 0.51 0.49 0.50 0.49 0.47 0.45
0.67 0.67 0.67 0.66 0.62 0.59 0.57 0.51 0.46 0.43 0.41 0.42 0.44 0.46 0.46 0.48 0.50 0.49 0.48 0.48 0.47 0.44
0.62 0.59 0.57 0.53 0.49 0.49 0.47 0.43 0.41 0.41 0.41 0.42 0.43 0.46 0.47 0.47 0.46 0.45 0.45 0.45 0.45 0.44
0.53 0.51 0.51 0.51 0.49 0.46 0.45 0.42 0.43 0.41 0.44 0.45 0.45 0.46 0.47 0.46 0.44 0.42 0.41 0.42 0.42 0.42
0.53 0.51 0.49 0.46 0.45 0.44 0.42 0.42 0.41 0.41 0.44 0.45 0.45 0.45 0.45 0.44 0.43 0.41 0.40 0.39 0.39 0.37
Wind_Speed
18 19 20 21 22 22 22 23 22 22 23 24 25 26 26 27 28 30 31 32 33 32
20 21 22 23 23 24 22 22 23 24 25 25 26 27 28 28 30 31 31 32 32 31
22 24 25 26 25 25 25 25 25 25 26 27 28 29 30 31 31 31 31 31 30 31
25 27 26 27 26 26 26 26 26 26 28 29 30 31 31 31 32 32 32 32 31 30
28 28 28 28 28 28 28 28 28 29 30 31 32 32 33 33 33 33 32 32 31 30
30 30 30 30 29 29 30 30 30 31 31 33 33 34 34 34 34 33 33 32 30 29
31 30 30 29 29 30 30 30 31 32 33 34 35 36 36 36 36 34 33 32 31 30
31 29 29 29 30 30 30 31 32 34 35 36 36 36 36 36 35 33 32 30 30 28
30 30 31 30 30 31 31 33 33 35 36 36 36 37 36 35 34 32 31 29 29 29
30 30 30 29 30 32 32 33 34 36 36 36 36 35 34 33 31 28 27 27 28 28
29 30 29 31 32 32 33 35 35 35 35 35 34 33 30 28 26 26 26 26 27 28
30 30 31 31 31 33 34 34 34 34 34 32 31 29 27 26 25 26 26 26 27 28
30 31 31 31 33 33 34 34 34 32 31 30 28 26 25 25 25 26 26 26 27 28
33 32 32 33 33 34 34 33 32 30 29 27 25 23 23 23 24 24 25 26 26 26
Wind_Direction
280 282 286 287 288 287 289 288 287 291 294 296 299 300 300 300 301 301 300 295 291 287
281 283 285 285 287 288 288 289 286 290 293 294 298 298 299 300 300 300 300 300 291 288
285 284 283 285 286 285 286 285 286 288 291 292 295 297 298 299 298 298 298 296 291 288
285 285 283 282 282 282 284 285 286 286 289 292 292 294 297 297 297 295 294 291 289 286
286 286 283 280 280 281 283 283 284 286 289 291 292 293 294 295 295 292 291 289 285 284
287 284 283 280 280 281 282 282 283 286 290 291 293 294 294 293 292 290 289 287 284 282
286 284 283 281 281 282 282 283 284 287 289 291 293 293 293 291 290 288 286 285 282 280
285 283 283 283 283 283 284 285 286 288 290 293 294 293 292 291 289 287 284 284 281 279
284 282 284 283 284 284 285 287 288 290 293 295 293 293 292 291 287 285 282 280 279 280
283 283 284 284 285 286 287 288 290 293 294 295 294 294 292 290 286 283 282 281 280 280
283 283 285 285 287 286 288 290 293 294 295 294 293 293 291 288 285 284 283 283 283 282
282 285 285 286 285 288 290 293 294 294 294 293 292 291 289 285 284 285 285 285 285 284
281 285 286 286 288 290 291 293 294 294 294 293 290 289 287 286 286 285 285 286 287 287
285 285 287 288 289 290 291 291 293 292 292 290 289 288 288 289 288 287 287 288 290 291